Location: Mariposa
(37.4849°N, 119.9663°W)
Time: 08:57:34
(UTC+00:00)

Cosmos 773 Rocket - Pass Details

Date: 03 August 2024
Orbit: 742 x 775 km, 74.1° (Epoch: 10 September)

Event Time Altitude Azimuth Distance (km) Brightness Sun altitude
Exits shadow 12:31:35 - 206° (SSW) 2,940 6.5 -7.1°
Reaches altitude 10° 12:33:21 10° 209° (SSW) 2,256 5.9 -6.7°
Maximum altitude 12:38:24 62° 290° (WNW) 847 4.1 -5.9°
Drops below altitude 10° 12:43:33 10° 11° (N) 2,290 7.0 -4.9°
Sets 12:45:58 0° 15° (NNE) 3,225 7.9 -4.5°
